TimeCDT,TemperatureF,Dew PointF,Humidity,Sea Level PressureIn,VisibilityMPH,Wind Direction,Wind SpeedMPH,Gust SpeedMPH,PrecipitationIn,Events,Conditions,WindDirDegrees,DateUTC
12:13 AM,53.6,51.8,94,29.89,10.0,Calm,Calm,-,N/A,,Clear,0,2013-08-06 05:13:00
12:32 AM,53.6,51.8,94,29.88,10.0,Calm,Calm,-,N/A,,Clear,0,2013-08-06 05:32:00
12:53 AM,51.8,51.8,100,29.88,10.0,Calm,Calm,-,N/A,,Clear,0,2013-08-06 05:53:00
1:13 AM,51.8,51.8,100,29.88,10.0,Calm,Calm,-,N/A,,Clear,0,2013-08-06 06:13:00
1:33 AM,50.0,50.0,100,29.86,10.0,Calm,Calm,-,N/A,,Clear,0,2013-08-06 06:33:00
1:53 AM,51.8,51.8,100,29.85,7.0,Calm,Calm,-,N/A,,Clear,0,2013-08-06 06:53:00
2:12 AM,51.8,51.8,100,29.86,7.0,Calm,Calm,-,N/A,,Clear,0,2013-08-06 07:12:00
2:33 AM,48.2,48.2,100,29.86,10.0,Calm,Calm,-,N/A,,Clear,0,2013-08-06 07:33:00
2:53 AM,48.2,48.2,100,29.86,10.0,Calm,Calm,-,N/A,,Clear,0,2013-08-06 07:53:00
3:13 AM,48.2,48.2,100,29.86,7.0,Calm,Calm,-,N/A,,Clear,0,2013-08-06 08:13:00
3:32 AM,48.2,46.4,93,29.85,10.0,Calm,Calm,-,N/A,,Clear,0,2013-08-06 08:32:00
3:53 AM,48.2,48.2,100,29.84,10.0,Calm,Calm,-,N/A,,Clear,0,2013-08-06 08:53:00
4:12 AM,48.2,48.2,100,29.83,10.0,Calm,Calm,-,N/A,,Clear,0,2013-08-06 09:12:00
4:32 AM,48.2,48.2,100,29.83,7.0,Calm,Calm,-,N/A,,Clear,0,2013-08-06 09:32:00
4:51 AM,48.2,48.2,100,29.82,10.0,Calm,Calm,-,N/A,,Clear,0,2013-08-06 09:51:00
5:12 AM,46.4,46.4,100,29.84,1.5,Calm,Calm,-,N/A,,Mostly Cloudy,0,2013-08-06 10:12:00
5:32 AM,46.4,46.4,100,29.82,1.2,Calm,Calm,-,N/A,,Mostly Cloudy,0,2013-08-06 10:32:00
5:52 AM,46.4,46.4,100,29.83,2.5,Calm,Calm,-,N/A,,Mostly Cloudy,0,2013-08-06 10:52:00
6:13 AM,46.4,46.4,100,29.83,1.5,Calm,Calm,-,N/A,,Mostly Cloudy,0,2013-08-06 11:13:00
6:33 AM,46.4,46.4,100,29.84,10.0,Calm,Calm,-,N/A,,Scattered Clouds,0,2013-08-06 11:33:00
6:53 AM,50.0,50.0,100,29.83,10.0,Calm,Calm,-,N/A,,Clear,0,2013-08-06 11:53:00
7:13 AM,51.8,51.8,100,29.85,10.0,Calm,Calm,-,N/A,,Clear,0,2013-08-06 12:13:00
7:32 AM,53.6,53.6,100,29.83,10.0,Calm,Calm,-,N/A,,Clear,0,2013-08-06 12:32:00
7:53 AM,53.6,53.6,100,29.82,10.0,SE,3.5,-,N/A,,Clear,140,2013-08-06 12:53:00
8:12 AM,55.4,55.4,100,29.83,10.0,Calm,Calm,-,N/A,,Clear,0,2013-08-06 13:12:00
8:32 AM,57.2,55.4,94,29.83,10.0,Calm,Calm,-,N/A,,Clear,0,2013-08-06 13:32:00
8:52 AM,60.8,55.4,82,29.83,10.0,Calm,Calm,-,N/A,,Clear,0,2013-08-06 13:52:00
9:12 AM,62.6,55.4,77,29.83,10.0,South,4.6,-,N/A,,Clear,180,2013-08-06 14:12:00
9:33 AM,60.8,55.4,82,29.82,10.0,SE,3.5,-,N/A,,Clear,140,2013-08-06 14:33:00
9:52 AM,62.6,57.2,82,29.82,10.0,South,3.5,-,N/A,Rain,Light Rain,170,2013-08-06 14:52:00
10:13 AM,62.6,57.2,82,29.83,10.0,SSW,4.6,-,N/A,,Scattered Clouds,200,2013-08-06 15:13:00
10:32 AM,62.6,55.4,77,29.84,10.0,SSW,11.5,-,N/A,,Mostly Cloudy,200,2013-08-06 15:32:00
10:53 AM,62.6,55.4,77,29.83,10.0,South,5.8,-,N/A,Rain,Light Rain,180,2013-08-06 15:53:00
11:13 AM,62.6,55.4,77,29.82,10.0,South,5.8,-,N/A,,Scattered Clouds,180,2013-08-06 16:13:00
11:33 AM,62.6,55.4,77,29.81,10.0,South,5.8,-,N/A,,Scattered Clouds,190,2013-08-06 16:33:00
11:52 AM,62.6,55.4,77,29.82,10.0,South,5.8,-,N/A,,Mostly Cloudy,190,2013-08-06 16:52:00
12:13 PM,64.4,55.4,73,29.81,10.0,South,4.6,-,N/A,,Scattered Clouds,180,2013-08-06 17:13:00
12:33 PM,66.2,57.2,73,29.80,10.0,South,5.8,-,N/A,,Scattered Clouds,180,2013-08-06 17:33:00
12:52 PM,66.2,57.2,73,29.80,10.0,South,5.8,-,N/A,,Scattered Clouds,190,2013-08-06 17:52:00
1:13 PM,69.8,57.2,64,29.80,10.0,South,5.8,-,N/A,,Scattered Clouds,180,2013-08-06 18:13:00
1:33 PM,71.6,59.0,64,29.79,10.0,South,4.6,-,N/A,,Scattered Clouds,170,2013-08-06 18:33:00
1:52 PM,71.6,59.0,64,29.79,10.0,SSE,5.8,-,N/A,,Scattered Clouds,160,2013-08-06 18:52:00
2:13 PM,71.6,59.0,64,29.79,7.0,Calm,Calm,-,N/A,,Scattered Clouds,0,2013-08-06 19:13:00
2:32 PM,71.6,60.8,69,29.79,10.0,Calm,Calm,-,N/A,,Scattered Clouds,0,2013-08-06 19:32:00
2:53 PM,71.6,60.8,69,29.79,10.0,Calm,Calm,-,N/A,,Overcast,0,2013-08-06 19:53:00
3:12 PM,71.6,60.8,69,29.78,10.0,SE,3.5,-,N/A,,Overcast,130,2013-08-06 20:12:00
3:33 PM,71.6,60.8,69,29.76,10.0,ESE,11.5,-,N/A,,Overcast,110,2013-08-06 20:33:00
3:52 PM,64.4,60.8,88,29.78,2.0,NNW,18.4,29.9,0.15,Rain-Thunderstorm,Heavy Thunderstorms and Rain,340,2013-08-06 20:52:00
4:12 PM,60.8,57.2,88,29.78,2.0,Calm,Calm,-,1.06,Rain-Thunderstorm,Heavy Thunderstorms and Rain,0,2013-08-06 21:12:00
4:33 PM,59.0,57.2,94,29.78,5.0,East,4.6,-,1.10,Rain,Rain,80,2013-08-06 21:33:00
4:53 PM,57.2,57.2,100,29.79,10.0,Calm,Calm,-,N/A,,Overcast,0,2013-08-06 21:53:00
5:13 PM,59.0,59.0,100,29.79,10.0,Calm,Calm,-,N/A,Thunderstorm,Mostly Cloudy,0,2013-08-06 22:13:00
5:33 PM,60.8,59.0,94,29.79,10.0,Calm,Calm,-,N/A,,Mostly Cloudy,0,2013-08-06 22:33:00
5:52 PM,60.8,60.8,100,29.80,10.0,Calm,Calm,-,N/A,,Scattered Clouds,0,2013-08-06 22:52:00
6:12 PM,62.6,60.8,94,29.77,10.0,North,4.6,-,N/A,,Scattered Clouds,360,2013-08-06 23:12:00
6:32 PM,62.6,60.8,94,29.77,10.0,NNW,3.5,-,N/A,,Clear,340,2013-08-06 23:32:00
6:53 PM,62.6,60.8,94,29.78,10.0,Calm,Calm,-,N/A,,Clear,0,2013-08-06 23:53:00
7:12 PM,62.6,62.6,100,29.80,10.0,Calm,Calm,-,N/A,,Clear,0,2013-08-07 00:12:00
7:32 PM,62.6,62.6,100,29.80,10.0,Calm,Calm,-,N/A,Rain,Light Rain,0,2013-08-07 00:32:00
7:52 PM,62.6,62.6,100,29.80,10.0,Calm,Calm,-,N/A,,Light Drizzle,0,2013-08-07 00:52:00
8:13 PM,62.6,62.6,100,29.78,10.0,Calm,Calm,-,N/A,,Drizzle,0,2013-08-07 01:13:00
8:32 PM,62.6,62.6,100,29.79,10.0,North,3.5,-,N/A,,Light Drizzle,360,2013-08-07 01:32:00
8:53 PM,62.6,62.6,100,29.80,10.0,North,6.9,-,N/A,,Overcast,360,2013-08-07 01:53:00
9:13 PM,62.6,60.8,94,29.81,10.0,North,3.5,-,N/A,,Overcast,350,2013-08-07 02:13:00
9:32 PM,62.6,60.8,94,29.83,10.0,NNW,4.6,-,N/A,,Overcast,340,2013-08-07 02:32:00
9:52 PM,62.6,60.8,94,29.84,10.0,NNW,5.8,-,N/A,Rain,Light Rain,340,2013-08-07 02:52:00
10:13 PM,62.6,60.8,94,29.85,10.0,North,6.9,-,N/A,,Overcast,350,2013-08-07 03:13:00
10:32 PM,62.6,57.2,82,29.86,10.0,NNW,9.2,-,N/A,,Overcast,340,2013-08-07 03:32:00
10:52 PM,62.6,59.0,88,29.86,10.0,North,5.8,-,N/A,,Overcast,350,2013-08-07 03:52:00
11:12 PM,62.6,59.0,88,29.86,10.0,North,6.9,-,N/A,,Overcast,350,2013-08-07 04:12:00
11:32 PM,62.6,59.0,88,29.87,10.0,North,6.9,-,N/A,,Overcast,350,2013-08-07 04:32:00
11:53 PM,60.8,57.2,88,29.87,10.0,North,5.8,-,N/A,,Overcast,360,2013-08-07 04:53:00